GW4663 Weather Reports


Display with metric or nautical units.
time (UTC)temp
F
wind
direction
speed
MPH
gust
MPH
rain 1hr
in
rain 24hr
in
rain mn
in
humidity
%
barometer
mb
20260505124602 37 13 6.0 8.0 0.00 0.07 0.07 87 1002.1
20260505124058 37 78 4.0 6.0 0.05 0.07 0.07 88 1002.0
20260505123554 38 31 8.0 10.0 0.05 0.07 0.07 88 1001.6
20260505123051 38 358 4.0 6.0 0.07 0.06 0.06 88 1001.6
20260505122547 38 40 5.0 8.0 0.07 0.06 0.06 87 1001.9
20260505122044 38 52 7.0 10.0 0.05 0.05 0.05 86 1001.5
20260505121540 38 342 6.0 7.0 0.05 0.05 0.05 86 1001.4
20260505121037 39 46 4.0 6.0 0.07 0.04 0.04 85 1001.4
20260505120529 39 63 6.0 10.0 0.07 0.04 0.04 85 1001.0
20260505120024 39 18 7.0 9.0 0.07 0.03 0.03 85 1001.1
20260505115519 39 57 5.0 8.0 0.07 0.03 0.03 85 1001.3
20260505115017 39 54 3.0 6.0 0.05 0.02 0.02 85 1001.0
20260505114513 40 16 10.0 10.0 0.12 0.02 0.02 85 1001.0
20260505114010 40 17 9.0 11.0 0.07 0.01 0.01 84 1000.9
20260505113506 41 12 4.0 6.0 0.00 0.00 0.00 84 1000.7
20260505113003 42 346 3.0 4.0 0.00 0.00 0.00 83 1000.9
20260505112459 43 25 2.0 2.0 0.00 0.00 0.00 82 1000.8
20260505111956 42 31 4.0 6.0 0.00 0.00 0.00 81 1000.7
20260505111455 42 51 3.0 7.0 0.00 0.00 0.00 81 1000.6
20260505110952 42 16 4.0 6.0 0.00 0.00 0.00 81 1000.3
20260505110449 43 32 4.0 4.0 0.00 0.00 0.00 81 1000.3
20260505101921 44 78 2.0 3.0 0.00 0.00 0.00 81 999.8
20260505101421 45 36 2.0 3.0 0.00 0.00 0.00 81 999.6
20260505100916 45 43 0.0 1.0 0.00 0.00 0.00 83 999.6
20260505100413 46 346 2.0 2.0 0.00 0.00 0.00 82 999.6
20260505095909 46 36 0.0 1.0 0.00 0.00 0.00 81 999.5
20260505095406 46 47 2.0 2.0 0.00 0.00 0.00 81 999.1
20260505094902 46 60 2.0 2.0 0.00 0.00 0.00 80 999.1
20260505094400 46 60 2.0 2.0 0.00 0.00 0.00 80 999.1
20260505093855 46 51 1.0 2.0 0.00 0.00 0.00 80 999.6
20260505093353 46 56 0.0 1.0 0.00 0.00 0.00 80 999.3
20260505092850 46 90 0.0 1.0 0.00 0.00 0.00 80 999.4
20260505092348 46 111 0.0 0.0 0.00 0.00 0.00 81 999.3
20260505091845 46 61 2.0 3.0 0.00 0.00 0.00 81 999.4
20260505091343 46 61 0.0 1.0 0.00 0.00 0.00 82 999.3
20260505090841 46 55 1.0 1.0 0.00 0.00 0.00 82 999.3
20260505090339 47 353 0.0 2.0 0.00 0.00 0.00 83 999.1
20260505085835 47 68 1.0 1.0 0.00 0.00 0.00 83 999.4
20260505085333 47 43 0.0 0.0 0.00 0.00 0.00 83 999.5
20260505084831 47 68 0.0 0.0 0.00 0.00 0.00 83 999.3
20260505084329 47 14 2.0 2.0 0.00 0.00 0.00 82 999.5
20260505083826 47 96 0.0 1.0 0.00 0.00 0.00 82 999.4
20260505083324 47 104 0.0 1.0 0.00 0.00 0.00 83 999.3
20260505082820 47 69 0.0 1.0 0.00 0.00 0.00 84 999.5
20260505082311 47 96 0.0 0.0 0.00 0.00 0.00 84 999.6
20260505081808 47 120 0.0 0.0 0.00 0.00 0.00 85 999.6
20260505081304 47 126 0.0 0.0 0.00 0.00 0.00 85 999.6
20260505080801 47 126 0.0 0.0 0.00 0.00 0.00 85 999.6
20260505080257 47 126 0.0 0.0 0.00 0.00 0.00 85 999.5
20260505075752 47 129 0.0 0.0 0.00 0.00 0.00 85 999.5
20260505075250 47 136 0.0 0.0 0.00 0.00 0.00 85 999.5
20260505074747 47 148 0.0 0.0 0.00 0.00 0.00 85 999.6
20260505074244 48 146 0.0 0.0 0.00 0.00 0.00 85 999.5
20260505073742 48 149 0.0 1.0 0.00 0.00 0.00 85 999.6
20260505073239 48 146 1.0 1.0 0.00 0.00 0.00 85 999.8
20260505072736 48 154 0.0 0.0 0.00 0.00 0.00 85 1000.0
20260505072232 48 146 1.0 2.0 0.00 0.00 0.00 85 1000.2
20260505071727 47 145 1.0 1.0 0.00 0.00 0.00 85 1000.0
20260505071225 47 148 0.0 0.0 0.00 0.00 0.00 85 1000.2
20260505070722 47 146 1.0 1.0 0.00 0.00 0.00 85 1000.3
20260505070218 47 147 1.0 1.0 0.00 0.00 0.00 85 1000.2
20260505065714 47 137 1.0 1.0 0.00 0.00 0.00 86 999.7
20260505065211 47 149 1.0 2.0 0.00 0.00 0.00 86 1000.1
20260505064708 47 146 1.0 1.0 0.00 0.00 0.00 86 1000.1
20260505064206 48 158 0.0 1.0 0.00 0.00 0.00 86 1000.2
20260505063703 48 144 1.0 1.0 0.00 0.00 0.00 86 1000.1
20260505063159 47 149 1.0 1.0 0.00 0.00 0.00 86 1000.2
20260505062655 47 149 1.0 1.0 0.00 0.00 0.00 86 1000.1
20260505062153 47 149 0.0 0.0 0.00 0.00 0.00 86 1000.3
20260505061650 47 152 1.0 1.0 0.00 0.00 0.00 85 1000.1
20260505061148 47 146 1.0 2.0 0.00 0.00 0.00 85 1000.2
20260505060645 47 164 3.0 4.0 0.00 0.00 0.00 85 1000.2
20260505060142 47 152 1.0 2.0 0.00 0.00 0.00 85 1000.4
20260505055637 47 150 1.0 1.0 0.00 0.12 0.12 85 1000.3
20260505055134 47 172 1.0 1.0 0.00 0.12 0.12 85 1000.2
20260505054631 47 178 1.0 1.0 0.00 0.12 0.12 85 1000.1
20260505054129 47 150 1.0 2.0 0.00 0.12 0.12 85 999.7
20260505053627 47 157 2.0 2.0 0.00 0.12 0.12 85 1000.1
20260505053123 47 140 1.0 1.0 0.00 0.12 0.12 84 1000.1
20260505052620 47 159 2.0 2.0 0.00 0.12 0.12 84 1000.3
20260505052117 47 148 1.0 1.0 0.00 0.12 0.12 84 1000.1
20260505051614 47 142 1.0 1.0 0.00 0.12 0.12 84 1000.4
20260505051112 47 168 0.0 0.0 0.05 0.12 0.12 84 1000.3
20260505050610 47 170 1.0 1.0 0.05 0.12 0.12 84 1000.7
20260505050108 47 166 0.0 0.0 0.07 0.11 0.11 84 1000.7
20260505041537 48 263 2.0 2.0 0.05 0.10 0.10 82 1000.7
20260505041035 48 180 0.0 1.0 0.12 0.10 0.10 81 1000.8
20260505040532 48 256 2.0 3.0 0.19 0.09 0.09 81 1000.7
20260505040029 48 242 3.0 3.0 0.12 0.08 0.08 79 1000.7
20260505035525 49 223 6.0 9.0 0.05 0.06 0.06 77 1000.4
20260505035022 51 269 4.0 6.0 0.12 0.06 0.06 74 1000.4
20260505034518 52 325 1.0 2.0 0.07 0.05 0.05 69 1000.3
20260505034015 53 176 0.0 1.0 0.00 0.04 0.04 65 1000.2
20260505033513 52 48 5.0 8.0 0.00 0.04 0.04 61 1000.0
20260505033011 53 297 2.0 3.0 0.00 0.04 0.04 62 1000.0
20260505032508 53 54 1.0 1.0 0.00 0.04 0.04 62 999.7
20260505032004 53 149 0.0 0.0 0.00 0.04 0.04 62 999.5
20260505031501 53 207 0.0 1.0 0.00 0.04 0.04 61 999.4
20260505030958 53 216 0.0 1.0 0.00 0.04 0.04 61 999.4
20260505030455 53 233 2.0 2.0 0.00 0.04 0.04 61 999.4
20260505025950 53 320 1.0 2.0 0.00 0.04 0.04 60 999.3
20260505025447 53 5 3.0 6.0 0.00 0.04 0.04 61 999.3
20260505024946 53 60 1.0 1.0 0.00 0.04 0.04 61 999.1
20260505024442 53 91 0.0 1.0 0.00 0.04 0.04 61 999.0
20260505023939 53 114 0.0 0.0 0.00 0.04 0.04 61 998.9
20260505023436 53 123 1.0 1.0 0.00 0.04 0.04 60 999.0
20260505022933 53 122 0.0 0.0 0.00 0.04 0.04 60 998.8
20260505022431 53 34 2.0 2.0 0.00 0.04 0.04 60 998.8
20260505021928 53 109 0.0 0.0 0.00 0.04 0.04 61 998.9
20260505021425 53 46 2.0 3.0 0.00 0.04 0.04 60 998.8
20260505020920 53 102 0.0 0.0 0.00 0.04 0.04 61 998.9
20260505020416 53 96 0.0 0.0 0.00 0.04 0.04 61 999.0
20260505015913 53 298 2.0 2.0 0.00 0.04 0.04 60 999.3
20260505015410 53 75 0.0 0.0 0.00 0.04 0.04 60 998.7
20260505014907 53 48 1.0 1.0 0.00 0.04 0.04 60 998.4
20260505014404 54 113 0.0 0.0 0.00 0.04 0.04 59 998.3
20260505013901 53 40 2.0 3.0 0.00 0.04 0.04 57 998.3
20260505013358 53 90 0.0 0.0 0.00 0.04 0.04 60 998.3
20260505012856 53 9 2.0 3.0 0.00 0.04 0.04 61 998.3
20260505012354 52 117 1.0 1.0 0.00 0.04 0.04 61 998.2
20260505011850 52 54 2.0 3.0 0.00 0.04 0.04 63 998.3
20260505011347 52 343 3.0 6.0 0.00 0.04 0.04 66 998.2
20260505010843 52 6 5.0 6.0 0.05 0.04 0.04 65 998.5
20260505010338 52 3 3.0 3.0 0.05 0.04 0.04 63 998.7
20260505005835 53 5 3.0 4.0 0.00 0.03 0.03 61 998.5
20260505005332 54 308 1.0 2.0 0.07 0.03 0.03 60 998.7
20260505004830 55 68 5.0 7.0 0.07 0.03 0.03 53 998.4
20260505004325 56 294 7.0 9.0 0.00 0.02 0.02 50 998.5
20260505003823 57 348 8.0 9.0 0.00 0.02 0.02 46 998.4
20260505003320 58 323 6.0 10.0 0.00 0.02 0.02 43 998.3
20260505002816 57 216 5.0 9.0 0.00 0.02 0.02 43 998.3
20260505002313 57 297 9.0 13.0 0.00 0.02 0.02 46 998.2
20260505001812 57 6 2.0 3.0 0.07 0.02 0.02 48 997.8
20260505001308 57 7 3.0 3.0 0.07 0.02 0.02 50 997.7
20260505000806 57 42 2.0 2.0 0.05 0.01 0.01 50 997.8
20260505000303 57 345 4.0 4.0 0.05 0.01 0.01 45 997.8
20260504235800 58 124 0.0 1.0 0.05 0.01 0.01 48 997.7
20260504235256 59 295 4.0 7.0 0.00 0.00 0.00 40 997.7
20260504234753 59 49 8.0 16.0 0.00 0.00 0.00 39 997.8
20260504234251 62 292 6.0 8.0 0.00 0.00 0.00 35 997.8
20260504233747 62 254 8.0 13.0 0.00 0.00 0.00 30 997.2
20260504233243 63 319 6.0 9.0 0.00 0.00 0.00 30 997.1
20260504232740 63 340 4.0 7.0 0.00 0.00 0.00 29 997.0
20260504232237 63 358 9.0 11.0 0.00 0.00 0.00 29 996.9
20260504231734 63 0 8.0 9.0 0.00 0.00 0.00 29 997.0
20260504231230 63 36 11.0 15.0 0.00 0.00 0.00 29 997.0
20260504230726 63 350 5.0 6.0 0.00 0.00 0.00 29 996.9
20260504230225 63 323 5.0 8.0 0.00 0.00 0.00 29 996.7
20260504225724 63 157 3.0 3.0 0.00 0.00 0.00 29 996.7
20260504225219 64 310 3.0 3.0 0.00 0.00 0.00 29 996.7
20260504224716 64 312 9.0 13.0 0.00 0.00 0.00 28 996.5
20260504224214 64 33 5.0 8.0 0.00 0.00 0.00 29 996.5
20260504223710 64 330 4.0 6.0 0.00 0.00 0.00 28 996.5
20260504223205 64 56 4.0 7.0 0.00 0.00 0.00 28 996.7
20260504222703 64 10 9.0 14.0 0.00 0.00 0.00 28 996.3
20260504222159 64 331 7.0 9.0 0.00 0.00 0.00 27 996.5
20260504221657 64 341 9.0 14.0 0.00 0.00 0.00 27 996.4
20260504221154 64 307 4.0 7.0 0.00 0.00 0.00 27 996.4
20260504220650 64 325 7.0 9.0 0.00 0.00 0.00 27 996.4
20260504220148 65 321 9.0 11.0 0.00 0.00 0.00 26 995.8
20260504215644 67 333 5.0 6.0 0.00 0.00 0.00 21 995.8
20260504215142 67 7 6.0 7.0 0.00 0.00 0.00 21 995.7
20260504214637 67 224 4.0 8.0 0.00 0.00 0.00 21 995.9
20260504214134 68 26 4.0 4.0 0.00 0.00 0.00 21 995.9
20260504213630 68 3 2.0 3.0 0.00 0.00 0.00 21 996.2
20260504213127 68 27 8.0 10.0 0.00 0.00 0.00 20 996.4
20260504212624 68 6 6.0 8.0 0.00 0.00 0.00 20 996.1
20260504212120 68 320 3.0 3.0 0.00 0.00 0.00 20 996.4
20260504211618 69 24 8.0 10.0 0.00 0.00 0.00 20 996.3
20260504211114 71 313 3.0 3.0 0.00 0.00 0.00 19 996.4
20260504210612 69 304 2.0 3.0 0.00 0.00 0.00 20 996.4
20260504210108 68 25 5.0 9.0 0.00 0.00 0.00 20 996.4
20260504205606 68 303 2.0 3.0 0.00 0.00 0.00 20 996.5
20260504205103 68 345 5.0 6.0 0.00 0.00 0.00 20 996.8
20260504204601 68 45 3.0 4.0 0.00 0.00 0.00 21 996.5
20260504204100 69 302 5.0 7.0 0.00 0.00 0.00 20 996.5
20260504203558 69 325 4.0 6.0 0.00 0.00 0.00 20 996.8
20260504203055 71 283 2.0 4.0 0.00 0.00 0.00 21 997.1
20260504202550 68 192 3.0 4.0 0.00 0.00 0.00 22 996.8
20260504202048 68 262 5.0 7.0 0.00 0.00 0.00 22 996.8
20260504201545 68 168 3.0 3.0 0.00 0.00 0.00 22 996.9
20260504201043 68 267 5.0 6.0 0.00 0.00 0.00 20 996.5
20260504200538 68 246 1.0 1.0 0.00 0.00 0.00 21 996.8
20260504200036 68 320 4.0 4.0 0.00 0.00 0.00 21 996.9
20260504195532 69 302 3.0 3.0 0.00 0.00 0.00 21 996.9
20260504195028 68 228 5.0 7.0 0.00 0.00 0.00 21 996.9
20260504194525 68 272 4.0 6.0 0.00 0.00 0.00 21 996.9
20260504194020 67 243 4.0 7.0 0.00 0.00 0.00 21 996.7
20260504193517 68 198 1.0 1.0 0.00 0.00 0.00 20 997.0
20260504193016 66 239 3.0 4.0 0.00 0.00 0.00 21 997.0
20260504192514 66 80 2.0 3.0 0.00 0.00 0.00 22 996.9
20260504192012 65 162 2.0 3.0 0.00 0.00 0.00 24 997.5
20260504191509 67 210 1.0 2.0 0.00 0.00 0.00 22 997.8
20260504191005 66 59 5.0 7.0 0.00 0.00 0.00 21 997.5
20260504190501 68 76 2.0 3.0 0.00 0.00 0.00 20 997.4
20260504185957 68 59 4.0 8.0 0.00 0.00 0.00 19 997.4
20260504185455 68 183 0.0 0.0 0.00 0.00 0.00 19 997.2
20260504184951 69 143 0.0 0.0 0.00 0.00 0.00 19 996.9
20260504184447 69 345 3.0 3.0 0.00 0.00 0.00 19 997.0
20260504183942 69 268 2.0 2.0 0.00 0.00 0.00 19 996.9
20260504183440 69 170 0.0 0.0 0.00 0.00 0.00 19 996.8
20260504182938 69 350 4.0 6.0 0.00 0.00 0.00 19 996.9
20260504182434 70 258 5.0 6.0 0.00 0.00 0.00 17 997.0
20260504181932 70 283 3.0 4.0 0.00 0.00 0.00 18 996.8
20260504181429 70 280 3.0 3.0 0.00 0.00 0.00 18 996.9
20260504180927 70 0 2.0 3.0 0.00 0.00 0.00 19 996.9
20260504180426 70 65 5.0 7.0 0.00 0.00 0.00 17 997.1
20260504175924 70 78 1.0 1.0 0.00 0.00 0.00 17 996.8
20260504175420 70 353 4.0 7.0 0.00 0.00 0.00 15 997.0
20260504174918 72 335 5.0 10.0 0.00 0.00 0.00 16 997.0
20260504174415 71 274 3.0 4.0 0.00 0.00 0.00 18 997.2
20260504173913 72 59 3.0 4.0 0.00 0.00 0.00 18 997.2
20260504173409 72 252 7.0 11.0 0.00 0.00 0.00 17 997.6
20260504172907 72 331 3.0 4.0 0.00 0.00 0.00 17 997.6
20260504172403 71 258 2.0 2.0 0.00 0.00 0.00 18 997.5
20260504171859 71 256 3.0 4.0 0.00 0.00 0.00 18 997.5
20260504171356 71 295 5.0 7.0 0.00 0.00 0.00 18 997.5
20260504170853 70 254 6.0 7.0 0.00 0.00 0.00 18 997.7
20260504170350 72 248 4.0 7.0 0.00 0.00 0.00 19 997.8
20260504160308 68 218 5.0 6.0 0.00 0.00 0.00 20 998.2
20260504150733 65 201 4.0 8.0 0.00 0.00 0.00 22 998.4
20260504150230 64 177 3.0 3.0 0.00 0.00 0.00 23 998.7
20260504141159 57 215 3.0 3.0 0.00 0.00 0.00 31 998.8
20260504140656 57 198 4.0 4.0 0.00 0.00 0.00 31 998.8
20260504140152 57 179 2.0 3.0 0.00 0.00 0.00 32 998.5
20260504130620 52 145 0.0 1.0 0.00 0.00 0.00 37 998.4
20260504130117 51 147 2.0 2.0 0.00 0.00 0.00 38 998.2